Погода в Погосте

Россия / Ивановская область     57°13′04″N   41°14′21″E
темп.,
°C
ветер,
м/с
пор.,
м/с
влажн.,
%
обл.,
%
осадки,
мм/ч
давл.,
гПа
погр.,
м
21 апреля, ср
ср2100:00+5вюв61360100 0.6 1018797
03:00+2вюв81789100 1.9 1014790
06:00+1вюв101997100 4.6 1009946
09:00+4вюв112091100 5.3 1006852
12:00+7юв101986100 0.1 10051281
15:00+4юз4796100 2.4 1007409
18:00+4ююз4795100 2.1 1008600
21:00+3ююз3890100 2.1 1010327
22 апреля, чт
чт2200:00+3ююз4893100 0.0 1011357
03:00+3ю4995100 0.0 1012328
06:00+3ю5995100 0.0 1013473
09:00+4ю5994100 0.1 1015558
12:00+6ю6886100 0.1 1016674
15:00+8ююз61079100 0.1 10161041
18:00+9ююз51074100 0.0 1016814
21:00+7ю5108391 0.0 1017276
23 апреля, пт
пт2300:00+6ююв4108753 0.0 1017186
03:00+7ююв5128815 0.0 1016334
06:00+6ююв5129255 0.0 1016318
09:00+11ю6107443 0.0 1017538
12:00+16ю711505 0.0 10162028
15:00+15ю7115190 0.0 10161263
18:00+14ююв6115530 0.0 1015576
21:00+10ююв5146748 0.0 1015377
24 апреля, сб
сб2400:00+8юв514765 0.1 1014346
03:00+7юв514805 0.1 1012318
06:00+7юв6157898 0.1 1010422
09:00+11юв8146951 0.4 10081173
12:00+14ююв9135858 0.8 10051899
15:00+6зюз4788100 3.1 1006417
18:00+3зсз4697100 5.8 1007419
21:00+4зсз4894100 7.6 1006664
25 апреля, вс
вс2500:00+4з4794100 1.8 1005587
03:00+4з4891100 1.9 1004508
06:00+3з4997100 0.4 1004557
09:00+5з6973100 1.3 1005982
12:00+8з785482 0.3 10051809
15:00+8зюз895381 0.9 10061986
18:00+5з69665 0.1 10071316
21:00+2юз38776 0.1 1009181